Theta_e
321 325 330 335 336 340 343 351 354 351 348 349 350 350 352 354 355 356 355 352 353 350 348 350 347 347 341 343 343 340 339 339
319 320 324 330 337 336 341 348 354 357 350 350 349 347 350 351 353 358 355 353 353 351 346 346 348 344 344 341 339 341 341 341
319 321 325 332 336 340 339 345 352 354 356 349 349 348 349 351 351 355 354 351 350 350 349 346 345 344 342 343 340 340 340 341
317 320 324 332 336 339 341 343 351 352 353 355 352 353 352 352 348 351 354 351 350 347 348 347 345 344 341 341 340 339 339 338
314 318 321 326 334 339 346 347 347 351 354 353 350 348 348 348 347 353 353 354 353 353 345 345 343 346 347 344 343 341 339 338
315 316 320 323 326 332 344 342 345 352 352 352 347 343 345 344 345 346 351 353 352 352 344 343 342 343 342 341 340 339 339 339
315 316 317 321 325 330 338 348 343 348 352 348 350 351 345 341 344 344 347 349 349 348 343 342 347 340 340 340 340 342 342 341
314 316 317 320 324 328 331 344 348 349 347 349 344 342 342 341 341 340 344 345 346 348 342 343 342 339 339 340 346 345 344 343
313 315 318 320 325 328 332 330 341 350 340 339 338 338 340 340 341 346 346 348 347 349 341 342 344 344 344 344 346 346 344 345
310 313 316 320 323 326 328 330 332 337 349 351 347 343 340 340 342 346 348 346 346 346 349 345 347 336 346 349 349 344 345 346
308 310 315 318 319 321 323 327 332 333 336 344 352 352 351 345 343 342 345 348 345 348 349 347 346 344 342 352 350 350 343 344
309 310 312 314 316 319 322 325 328 330 333 335 346 345 345 344 349 346 346 353 349 350 351 349 351 349 354 352 351 349 349 344
309 310 311 314 317 318 322 324 326 329 333 335 332 340 338 344 349 355 356 357 353 350 353 354 355 352 356 357 353 351 349 345
311 311 313 313 316 319 321 322 324 326 329 332 335 335 338 337 344 347 348 350 353 354 352 357 357 356 355 354 355 353 352 350
309 310 312 313 314 317 318 320 322 324 326 328 331 334 338 340 345 340 347 345 346 356 358 358 355 358 357 357 354 353 351 348
309 311 313 313 314 316 319 320 321 322 324 326 329 332 331 335 339 337 338 341 344 356 356 356 357 357 357 356 352 350 351 349
309 311 312 313 315 317 319 320 323 324 324 327 329 329 331 334 346 349 340 347 344 351 353 355 355 356 355 355 349 350 351 351
309 310 312 314 316 318 320 321 322 326 327 326 324 327 331 335 339 345 348 350 349 348 350 353 354 355 353 353 350 353 352 351
308 310 312 313 314 317 319 319 319 322 326 327 325 325 327 330 334 339 345 352 349 346 348 351 352 351 352 353 355 354 352 351
308 310 311 312 312 313 316 318 318 320 323 327 326 325 327 329 333 338 342 344 348 348 349 349 348 348 353 353 353 351 349 347
Wind_Speed
10 7 3 8 15 12 14 14 14 16 13 11 9 9 10 10 14 12 11 8 8 8 6 7 8 11 8 11 10 9 11 9
13 7 5 5 10 16 14 12 14 13 11 10 11 10 10 9 12 13 9 7 7 8 7 7 7 7 9 8 7 8 9 10
12 4 3 7 7 12 16 16 14 13 12 11 10 11 10 11 11 13 11 10 8 8 7 8 8 8 8 8 8 7 8 10
9 8 4 5 7 8 13 18 17 16 14 10 9 9 8 9 9 11 14 10 9 9 9 9 9 8 7 7 7 7 8 9
2 4 3 6 3 5 9 13 18 17 15 12 10 10 10 10 11 11 12 13 10 11 10 10 8 7 9 9 8 7 8 8
1 3 4 4 7 5 6 10 14 15 15 13 11 13 12 11 10 10 13 12 13 13 9 7 7 6 7 8 9 9 8 8
2 3 3 5 6 6 2 8 12 10 10 11 12 11 10 11 10 11 13 13 14 12 9 6 7 7 8 9 8 8 7 7
7 6 3 2 5 7 6 4 3 10 5 6 8 9 11 12 11 13 14 13 17 12 9 6 8 9 9 9 10 7 8 7
11 9 8 8 7 9 7 7 4 5 8 10 9 11 7 9 12 14 13 14 15 12 9 13 13 12 12 11 10 8 9 7
9 7 7 10 9 8 9 8 5 6 8 7 7 6 9 11 9 13 14 14 15 11 14 12 11 6 6 14 9 7 10 8
6 7 10 10 9 8 8 8 9 7 8 7 7 7 7 10 13 13 14 15 15 15 15 12 12 12 12 14 11 13 10 9
3 3 5 7 9 8 7 7 8 7 6 8 10 10 11 9 11 7 13 17 17 17 16 15 14 13 11 11 10 10 12 10
2 4 4 7 9 8 8 7 7 7 7 8 9 12 12 11 10 17 14 14 16 17 16 15 14 10 12 12 12 14 12 11
1 3 7 8 8 8 10 9 7 7 7 8 10 13 13 13 12 12 11 11 11 14 16 13 13 12 14 12 13 15 13 11
6 9 9 9 9 9 8 10 13 10 10 10 10 12 14 16 15 13 14 12 12 11 12 12 12 14 14 13 13 13 13 11
8 8 9 11 10 9 12 12 11 12 12 11 11 12 10 11 13 14 13 12 11 8 11 14 16 15 13 13 11 11 11 11
10 11 11 10 9 11 11 13 14 14 15 11 10 11 13 12 13 11 13 14 10 11 13 13 15 16 15 14 11 12 11 11
14 14 13 11 11 12 12 12 13 14 15 15 14 13 12 12 12 13 14 12 13 13 14 14 15 15 15 14 12 13 12 10
14 16 15 14 14 13 14 15 15 14 14 15 15 15 15 14 14 14 16 15 14 15 15 15 16 16 15 14 13 14 13 11
14 15 17 17 16 15 14 13 16 14 14 14 15 15 15 15 15 16 15 16 16 16 15 16 16 16 16 16 16 14 13 12
Wind_Direction
326 329 18 235 195 203 208 179 196 195 194 186 187 195 197 199 208 202 205 198 197 206 199 201 213 201 221 200 202 221 219 237
304 320 306 259 206 197 202 195 200 204 189 192 193 194 195 200 200 203 204 210 196 217 209 212 211 216 223 228 222 235 232 238
284 306 284 293 213 208 202 193 210 201 213 190 206 200 197 203 197 199 204 208 207 210 215 222 218 218 215 233 233 231 235 242
296 279 319 246 244 224 217 199 195 202 206 204 195 204 197 215 211 208 211 207 205 212 212 220 225 228 227 233 231 237 232 249
291 340 340 326 265 247 219 216 196 198 196 201 202 205 215 202 215 217 210 213 206 220 217 219 221 224 231 221 223 221 248 244
317 24 39 352 338 292 230 218 208 198 197 195 205 215 201 215 210 210 214 215 218 217 224 226 222 224 227 241 223 208 223 241
254 333 39 0 345 354 262 211 212 192 222 216 207 212 215 213 202 210 201 212 215 231 220 204 212 220 217 240 238 244 214 226
294 299 333 13 8 12 25 306 180 191 202 240 220 210 218 215 217 219 208 209 222 217 204 177 197 219 216 217 224 220 250 230
288 298 333 346 11 2 17 10 320 179 196 207 218 221 216 229 220 216 206 210 217 205 217 185 200 220 223 198 194 204 229 227
292 294 325 347 352 8 349 346 337 265 218 217 230 180 209 240 217 231 211 215 218 201 226 205 182 171 235 242 191 198 231 201
294 316 331 338 347 352 339 327 322 311 302 261 237 239 229 208 219 219 214 209 212 200 223 211 189 206 208 222 202 198 221 204
267 291 326 332 330 336 337 328 319 299 303 278 269 253 236 220 230 247 227 213 206 210 211 210 210 209 224 205 203 207 233 214
332 332 338 327 325 328 316 319 316 300 290 277 266 244 259 254 242 231 213 211 207 214 211 217 215 216 216 218 201 204 207 237
307 326 311 313 320 321 322 314 311 305 278 268 259 268 268 263 246 246 234 225 207 214 217 213 215 219 222 213 210 205 222 211
320 314 331 312 299 310 311 315 312 309 295 278 258 253 251 253 253 248 242 233 226 205 208 216 219 217 217 206 206 211 208 211
297 308 310 318 294 301 306 309 303 307 300 284 273 262 256 250 242 249 249 240 232 210 211 214 214 215 209 206 204 213 204 205
301 314 316 315 306 289 300 308 307 304 298 287 269 263 262 266 264 247 240 249 237 212 211 220 213 213 197 199 211 201 193 195
305 307 308 314 298 292 291 291 298 297 292 286 275 267 257 246 249 253 247 241 232 231 210 214 208 204 194 192 200 194 187 184
297 300 303 299 294 284 282 287 290 296 292 283 275 273 270 265 257 248 239 230 230 224 209 202 198 195 191 191 198 178 183 181
290 290 296 293 292 289 281 281 286 287 290 284 273 269 270 266 260 253 247 233 221 221 205 193 191 192 189 193 190 174 184 185